Regional Weather Roundup
Issued by NWS Kansas City/Pleasant Hill, MO

Home | Current Version | Previous Version | Text Only | Print | Product List | Glossary On
Versions: 1 2 3 4 5 6 7 8 9 10 11 12 13 14 15 16 17 18 19 20 21 22 23 24 25 26 27 28 29 30 31 32 33 34 35 36 37 38 39 40 41 42 43 44 45 46 47 48 49 50
480
ASUS43 KEAX 241410
RWREAX

WEATHER ROUNDUP FOR EASTERN KANSAS AND NORTHWEST MISSOURI
NATIONAL WEATHER SERVICE KANSAS CITY/PLEASANT HILL MO
900 AM CDT SUN JUL 24 2016

KSZ040-057-103>105-MOZ028-029-037-043-241500-
...KANSAS CITY METROPOLITAN AREA...

CITY           SKY/WX    TMP DP  RH WIND       PRES   REMARKS
K.C. INTL      MOSUNNY   83  72  69 W9        29.93R
K.C. DOWNTOWN  CLOUDY    85  70  60 SW8       29.91R
LEES SUMMIT    CLOUDY    84  72  67 SW10      29.94R
OLATHE - IXD   SUNNY     86  72  62 SW12      29.94R HX  92
OLATHE - OJC   CLOUDY    82  71  69 SW5       29.93S
LAWRENCE       SUNNY     85  73  67 SW7       29.91R HX  91

$$

MOZ001>008-011>017-020>025-030>033-038>040-044>046-053-054-241500-
...NORTHERN AND CENTRAL MISSOURI...

CITY           SKY/WX    TMP DP  RH WIND       PRES   REMARKS
ST. JOSEPH     MOSUNNY   83  74  74 S5        29.91R
MOSBY          CLOUDY    81  73  78 CALM      29.92R
WHITEMAN AFB   PTSUNNY   84  75  75 SW10      29.92S HX  92
CLINTON        CLOUDY    81  75  83 S6        29.95F
SEDALIA        CLOUDY    83  75  77 SW9       29.95S HX  90
WARSAW         NOT AVBL
CHILLICOTHE      N/A     87  76  69 SW5       29.92S HX  97
KIRKSVILLE     MOSUNNY   85  75  72 SW12      29.91F HX  93

$$

MOZ041-047>049-056>058-063>065-088>090-097-241500-
...EASTERN AND SOUTHERN MISSOURI...

CITY           SKY/WX    TMP DP  RH WIND       PRES   REMARKS
ST. LOUIS INTL MOSUNNY   87  75  67 S8        29.96R HX  96
SPIRIT OF STL  SUNNY     87  77  72 VRB5      29.94R HX  99
COLUMBIA       SUNNY     85  76  74 SW10      29.96R HX  94
JEFFERSON CITY SUNNY     86  74  67 W6        29.95R HX  94
ROLLA          SUNNY     84  74  71 SW7       29.98R HX  91
OSAGE BEACH    SUNNY     84  75  74 W7        29.98R HX  92
SPRINGFIELD    SUNNY     85  71  63 SW8       30.00R HX  90
BRANSON        MOSUNNY   84  73  70 CALM      30.03R HX  91
JOPLIN         CLOUDY    82  72  71 SW10      29.99R
WEST PLAINS    MOSUNNY   81  71  71 SE6       30.04R

$$

IAZ060-094-KSZ022-034>040-054-083-096-NEZ052-066-093-241500-
...KANSAS...SOUTHEAST NEBRASKA AND IOWA...

CITY           SKY/WX    TMP DP  RH WIND       PRES   REMARKS
TOPEKA           N/A     84  70  62 SW6       29.91R
MANHATTAN      LGT RAIN  77  71  82 SW10      29.90F
EMPORIA        MOSUNNY   87  70  56 SW13      29.93S HX  92
CHANUTE        CLOUDY    80  73  79 S8        29.95S
WICHITA        MOSUNNY   86  69  56 S13       29.95R HX  90
OMAHA          CLOUDY    82  69  64 N10       29.92R
LINCOLN        MOSUNNY   81  71  71 NE9       29.97R
FALLS CITY     MOSUNNY   83  74  74 NW9       29.91R
LAMONI         CLOUDY    80  75  84 S13       29.90S
DES MOINES     CLOUDY    83  75  77 NW9       29.87R HX  90

$$





USA.gov is the U.S. government's official web portal to all federal, state and local government web resources and services.